Home   Weather   Tallahassee   Past weeks

Flag for USA Past Weather in Tallahassee, Florida, USA — Yesterday and Last 2 Weeks

Now
64 °F

Passing clouds.


Feels Like: 64 °F
Forecast: 60 / 84 °F
Wind: 5 mph from Northeast

Location: Tallahassee Regional Airport

Current Time: Oct 20, 2017 at 8:35:02 am

Latest Report: Oct 20, 2017 at 7:53 am


Visibility: 10 mi

Pressure: 30.19 "Hg

Humidity: 87%

Dew Point: 60 °F

Location of TallahasseeLocation

Past Weather in Tallahassee — Graph

°F

Tallahassee Temperature Yesterday

Maximum temperature yesterday: 84 °F (at 3:53 pm)
Minimum temperature yesterday: 62 °F (at 7:53 am)
Average temperature yesterday: 72 °F

High & Low Weather Summary for the Past Weeks

 TemperatureHumidityPressure
High91 °F (Oct 7, 1:53 pm)100% (Oct 7, 3:53 am)30.24 "Hg (Oct 7, 3:53 am)
Low56 °F (Oct 18, 7:53 am)41% (Oct 13, 3:53 pm)29.80 "Hg (Oct 8, 5:53 am)
Average77 °F80%30.03 "Hg
* Reported Oct 5 6:53 am — Oct 20 6:53 am, Tallahassee. Weather by CustomWeather, © 2017

Note: Actual official high and low records may vary slightly from our data, if they occured in-between our weather recording intervals... More about our weather records

Advertising

Tallahassee Weather History for the Previous 24 Hours

Scroll right to see more
 ConditionsComfort  
Time TempWeatherWind HumidityBarometerVisibility
6:53 am
Fri, Oct 20
65 °FClear.No wind85%30.19 "Hg10 mi
5:53 am66 °FClear.5 mph81%30.18 "Hg10 mi
4:53 am64 °FClear.No wind84%30.18 "Hg10 mi
3:53 am66 °FClear.6 mph78%30.17 "Hg10 mi
2:53 am62 °FClear.No wind86%30.17 "Hg10 mi
1:53 am68 °FClear.5 mph73%30.17 "Hg10 mi
12:53 am70 °FClear.5 mph68%30.18 "Hg10 mi
11:53 pm
Thu, Oct 19
71 °FClear.5 mph63%30.18 "Hg10 mi
10:53 pm72 °FClear.6 mph64%30.17 "Hg10 mi
9:53 pm73 °FClear.6 mph62%30.16 "Hg10 mi
8:53 pm74 °FClear.6 mph60%30.16 "Hg10 mi
7:53 pm75 °FPassing clouds.6 mph58%30.14 "Hg10 mi
6:53 pm79 °FPassing clouds.5 mph50%30.12 "Hg10 mi
5:53 pm82 °FPassing clouds.8 mph46%30.11 "Hg10 mi
4:53 pm84 °FPassing clouds.9 mph45%30.11 "Hg10 mi
3:53 pm84 °FPassing clouds.6 mph45%30.12 "Hg10 mi
2:53 pm83 °FPassing clouds.12 mph46%30.14 "Hg10 mi
1:53 pm81 °FPassing clouds.13 mph49%30.17 "Hg10 mi
12:53 pm79 °FPassing clouds.10 mph52%30.20 "Hg10 mi
11:53 am77 °FSunny.14 mph54%30.22 "Hg10 mi
10:53 am74 °FSunny.10 mph62%30.22 "Hg10 mi
9:53 am70 °FSunny.7 mph71%30.21 "Hg10 mi
8:53 am65 °FSunny.5 mph85%30.19 "Hg10 mi
Weather by CustomWeather, © 2017

See weather overview